Regional Weather Roundup
Issued by NWS

Home | Current Version | Previous Version | Text Only | Print | Product List | Glossary On
Versions: 1 2 3 4 5 6 7 8 9 10 11 12 13 14 15 16 17 18 19 20 21 22 23 24 25 26 27 28 29 30 31 32 33 34 35 36 37 38 39 40 41 42 43 44 45 46 47 48 49 50
000
ASUS42 KKEY 211310
RWRKEY

FLORIDA REGIONAL WEATHER ROUNDUP FOR THE FLORIDA KEYS
NATIONAL WEATHER SERVICE KEY WEST FLORIDA
900 AM EDT SUN SEP 21 2014

...SOUTH FLORIDA AND THE KEYS...

CITY           SKY/WX    TMP DP  RH WIND       PRES   REMARKS
FORT MYERS     LGT RAIN  75  74  96 S5        29.99R
SW REGIONAL AP CLOUDY    76  62  62 CALM      30.00R
NAPLES         PTSUNNY   79  75  87 SE6       30.00R
MIAMI          PTSUNNY   79  72  79 CALM      30.01R
WEST KENDALL   PTSUNNY   81  72  74 MISG      30.01R
HOMESTEAD      PTSUNNY   79  70  74 NW3       30.01R
MARATHON       CLOUDY    84  77  79 CALM      30.00R HX  94
BOCA CHICA NAS CLOUDY    82  77  84 CALM      30.00R HX  90
KEY WEST INTL  CLOUDY    82  76  81 CALM      30.00R

...INTERNATIONAL WEATHER...

CITY           SKY/WX    TMP DP  RH WIND       PRES   REMARKS
NASSAU BAHAMAS PTSUNNY   82  77  83 VRB1      30.00R HX  91
CANCUN MEXICO  MOSUNNY   84  75  74 SE10      29.93R HX  92
COZUMEL MEXICO PTSUNNY   77  77 100 SE5       29.92R

ADJACENT COASTAL WATERS...

STATION/POSITION TIME  SKY/WX   TEMP    WIND        PRES    WAVE
                                AIR SEA DIR/SP/G            HT/PER
                 (UTC)          (F)     (DEG/KT/KT) (MB)    (FT/S)
PULASKI SHOAL LI 1300            82     120/  8/  9 1015.4R
SAND KEY         1236            82      50/  3/  5 1015.8R
SOMBRERO KEY     1300            83     180/  2/  4 1016.5S
LONG KEY         1200            81 84  200/  5/  5 1016.5R
MOLASSES REEF    1300            82 85  190/  4/  5 1016.2R
FOWEY ROCKS      1300            81 84  330/  5/  6 1016.4R
Buoy 42080       NOT AVBL

$$


USA.gov is the U.S. government's official web portal to all federal, state and local government web resources and services.